Flag for Portugal Weather past 2 weeks in Porto, Portugal

Now
64 °F

Clear.


Feels Like: 64 °F
Forecast: 60 / 82 °F
Wind: 7 mph from South

Location: Porto / Pedras Rubras

Current Time: Jul 26, 2014 at 12:24:58 AM

Latest Report: Jul 26, 2014 at 12:00 AM


Visibility: 4 mi

Pressure: 29.92 "Hg

Humidity: 94%

Dew point: 63 °F

Location of PortoLocation

Historic Weather in Porto — Graph

°F

Porto temperature yesterday

Maximum temperature yesterday: 75 °F (at 4:00 PM)
Minimum temperature yesterday: 61 °F (at 2:00 AM)
Average temperature yesterday: 67 °F

Past Weeks' High & Low Weather Summary

 TemperatureHumidityPressure
High82 °F (Jul 11, 1:00 PM)100% (Jul 14, 1:30 AM)30.21 "Hg (Jul 14, 1:30 AM)
Low54 °F (Jul 12, 6:30 AM)28% (Jul 11, 1:00 PM)29.83 "Hg (Jul 19, 3:00 AM)
Average66 °F83%30.02 "Hg
* Reported Jul 10 11:00 PM — Jul 25 11:00 PM, Porto, Weather by CustomWeather, © 2014

Note: Actual official high and low records may vary slightly from our data, if they occured in-between our weather recording intervals... More about our weather records

Advertising

Porto weather history for previous 24 hours

 ConditionsComfort  
Time TempWeatherWind HumidityBarometerVisibility
11:00 PM
Jul 25
64 °FClear.7 mph88%29.89 "Hg4 mi
10:30 PM64 °FClear.6 mph88%29.89 "Hg5 mi
10:00 PM63 °FClear.5 mph94%29.89 "Hg5 mi
9:30 PM64 °FClear.5 mph88%29.89 "Hg4 mi
9:00 PM66 °FClear.3 mph88%29.89 "Hg5 mi
8:30 PM68 °FClear.3 mph83%29.86 "Hg6 mi
8:00 PM70 °FPassing clouds.3 mph78%29.86 "HgN/A
7:30 PM72 °FSunny.5 mph73%29.86 "Hg10 mi
7:00 PM72 °FPassing clouds.5 mph73%29.86 "HgN/A
6:30 PM73 °FSunny.5 mph69%29.86 "Hg10 mi
6:00 PM73 °FPassing clouds.6 mph74%29.86 "HgN/A
5:30 PM75 °FPassing clouds.7 mph69%29.86 "HgN/A
5:00 PM73 °FPassing clouds.8 mph69%29.86 "HgN/A
4:30 PM75 °FPassing clouds.9 mph65%29.89 "HgN/A
4:00 PM75 °FPassing clouds.9 mph65%29.89 "HgN/A
3:30 PM73 °FSunny.10 mph65%29.89 "Hg10 mi
3:00 PM73 °FSunny.8 mph69%29.89 "Hg10 mi
2:30 PM73 °FPassing clouds.8 mph69%29.89 "HgN/A
2:00 PM72 °FPassing clouds.6 mph73%29.89 "HgN/A
1:30 PM72 °FPassing clouds.7 mph73%29.89 "HgN/A
1:00 PM72 °FClear.7 mph78%29.89 "Hg4 mi
12:30 PM70 °FPassing clouds.6 mph83%29.89 "Hg4 mi
12:00 PM72 °FPassing clouds.6 mph78%29.89 "Hg4 mi
11:30 AM72 °FPartly sunny.3 mph78%29.89 "Hg4 mi
11:00 AM68 °FFog.2 mph94%29.89 "Hg3 mi
10:30 AM64 °FFog.1 mph100%29.89 "Hg2 mi
10:00 AM64 °FPartly sunny.1 mph94%29.92 "Hg1 mi
9:30 AM63 °FFog.2 mph100%29.89 "Hg0 mi
9:00 AM63 °FFog.3 mph100%29.89 "Hg0 mi
8:30 AM63 °FFog.2 mph94%29.89 "Hg0 mi
8:00 AM63 °FFog.2 mph94%29.89 "Hg0 mi
7:30 AM63 °FFog.2 mph100%29.89 "Hg0 mi
7:00 AM63 °FFog.1 mph100%29.89 "Hg0 mi
6:30 AM63 °FFog.1 mph100%29.89 "Hg0 mi
6:00 AM63 °FMild.2 mph100%29.89 "Hg0 mi
5:30 AM63 °FMild.2 mph100%29.89 "Hg1 mi
5:00 AM63 °FFog.1 mph100%29.86 "Hg1 mi
4:30 AM64 °FFog.2 mph94%29.86 "Hg2 mi
4:00 AM64 °FFog.1 mph94%29.89 "Hg3 mi
3:30 AM64 °FFog.2 mph94%29.89 "Hg3 mi
3:00 AM63 °FPassing clouds.5 mph100%29.89 "Hg4 mi
2:30 AM61 °FFog.No wind100%29.89 "Hg2 mi
2:00 AM61 °FFog.2 mph94%29.89 "Hg2 mi
1:00 AM63 °FPassing clouds.3 mph94%29.92 "Hg5 mi
12:30 AM64 °FPassing clouds.6 mph94%29.89 "Hg6 mi
12:00 AM63 °FPassing clouds.8 mph94%29.89 "HgN/A
Weather by CustomWeather, © 2014

See weather overviewHow to use our weather pages